This demonstration page uses our WeatherBlox Daily Observations layout. Learn more.

Left ArrowRight Arrow

44.89941, -97.11507

Hourly Observations for November 25, 2019

Temp ( °F °C ) Dew Point ( °F °C ) Humidity (%) Winds ( mph kmh ) Pressure ( in mb ) Visibility ( mi km ) Precip ( " mm )
12:53 am 00:53 Mostly Clear 42 5.6 32 0 68 68 W 14 22 29.48 998 10 16 0.00 0.00
1:53 am 01:53 Clear 41 5 32 0 70 70 W 17 28 29.49 999 10 16 0.00 0.00
2:53 am 02:53 Clear 38 3.3 32 0 79 79 W 18 30 29.51 999 10 16 0.00 0.00
3:53 am 03:53 Clear 36 2.2 31 -0.6 82 82 W 17 28 29.52 1000 10 16 0.00 0.00
4:53 am 04:53 Clear 35 1.7 30 -1.1 82 82 W 17 28 29.52 1000 10 16 0.00 0.00
5:53 am 05:53 Clear 34 1.1 29 -1.7 82 82 W 17 28 29.52 1000 10 16 0.00 0.00
6:53 am 06:53 Clear 33 0.6 28 -2.2 82 82 W 17 28 29.53 1000 10 16 0.00 0.00
7:53 am 07:53 Sunny 33 0.6 28 -2.2 82 82 W 18 30 29.54 1000 10 16 0.00 0.00
8:22 am 08:22 Mostly Cloudy 35 1.7 28 -2.2 76 76 W 21 33 29.59 1002 10 16 0.00 0.00
8:53 am 08:53 Cloudy 36 2.2 28 -2.2 73 73 W 23 37 29.54 1001 10 16 0.00 0.00
9:53 am 09:53 Mostly Cloudy 37 2.8 29 -1.7 73 73 W 28 44 29.54 1001 10 16 0.00 0.00
10:02 am 10:02 Mostly Cloudy 38 3.3 29 -1.7 70 70 W 28 44 29.56 1001 10 16 0.00 0.00
10:46 am 10:46 Cloudy 38 3.3 30 -1.1 73 73 W 24 39 29.56 1001 10 16 0.00 0.00
10:53 am 10:53 Cloudy 39 3.9 30 -1.1 70 70 W 25 41 29.56 1001 10 16 0.00 0.00
11:53 am 11:53 Cloudy 40 4.4 30 -1.1 68 68 WNW 22 35 29.57 1001 10 16 0.00 0.00
12:53 pm 12:53 Cloudy 38 3.3 30 -1.1 73 73 WNW 22 35 29.59 1002 10 16 0.00 0.00
1:53 pm 13:53 Cloudy 37 2.8 29 -1.7 73 73 WNW 21 33 29.62 1003 10 16 0.00 0.00
2:53 pm 14:53 Cloudy 37 2.8 30 -1.1 76 76 WNW 20 31 29.65 1004 10 16 0.00 0.00
3:53 pm 15:53 Cloudy 36 2.2 30 -1.1 79 79 WNW 12 19 29.69 1006 10 16 0.00 0.00
4:53 pm 16:53 Cloudy 36 2.2 30 -1.1 79 79 WNW 13 20 29.72 1006 10 16 0.00 0.00
5:53 pm 17:53 Cloudy 35 1.7 30 -1.1 82 82 NW 13 20 29.74 1007 10 16 0.00 0.00
6:53 pm 18:53 Cloudy 35 1.7 29 -1.7 78 78 NNW 20 31 29.75 1007 10 16 0.00 0.00
7:53 pm 19:53 Cloudy 35 1.7 29 -1.7 78 78 NNW 14 22 29.78 1008 10 16 0.00 0.00
8:53 pm 20:53 Cloudy 34 1.1 29 -1.7 82 82 NW 10 17 29.79 1009 10 16 0.00 0.00
9:12 pm 21:12 Cloudy 34 1.1 29 -1.7 82 82 NNW 14 22 29.80 1009 10 16 0.00 0.00
9:53 pm 21:53 Cloudy 33 0.6 29 -1.7 85 85 NW 10 17 29.81 1010 10 16 0.00 0.00
10:53 pm 22:53 Cloudy 32 0 27 -2.8 82 82 NNW 15 24 29.83 1010 10 16 0.00 0.00
11:23 pm 23:23 Cloudy 32 0 26 -3.3 79 79 N 14 22 29.85 1011 10 16 0.00 0.00
11:53 pm 23:53 Cloudy 31 -0.6 26 -3.3 82 82 N 9 15 29.83 1010 10 16 0.00 0.00

Powered by AerisWeather